sat.trackr.live / text

‹ back to catalog

FLOCK 4BE-1

NORAD 60518 · 2024-149BC

PAYLOAD ACTIVE UNKNOWN

§ Identity

Operator
Country
US
Launch date
2024-08-16
Launch site
AFWTR
Launch vehicle
Mass (kg)
RCS (m²)

Purposes: earth_obs

External: N2YO · Heavens-Above · Gunter

§ Orbital elements

Epoch: 2026-09-19T05:06:04.398624Z

Period
93.14 min
Inclination
97.3730°
Eccentricity
0.0002945
Mean motion
15.46127792 rev/d
Perigee alt
426.1 km
Apogee alt
430.1 km
Semi-major
6,806.2 km
B*
6.2380e-4
RAAN
348.5946°
Arg perigee
316.0293°
Mean anomaly
44.0721°
Rev number
11,688

§ Raw data

FLOCK 4BE-11 60518U 24149BC  26262.21255091  .00030553  00000+0  62380-3 0  99902 60518  97.3730 348.5946 0002945 316.0293  44.0721 15.46127792116880

JSON: /api/v1/satellites/60518 · /tle

For live sub-satellite position, see the globe view (requires WebGL).

§ Visibility from observer

Set your observer location to see the next 7 days of passes ≥ 10°. The values pass through the URL so the page stays shareable.

No JS? Fill the form by hand. The geolocation button needs JavaScript.